Waarnemingen

Advertentie
Mijn weer
Benavente, Spanje (8056): temperatuur & dauwpunt: 17.07.2018 07:00:00 - 23.07.2018 07:00:00 (CEST)Benavente, Spanje (8056): windsnelheid & windstoten: 17.07.2018 07:00:00 - 23.07.2018 07:00:00 (CEST)Benavente, Spanje (8056): windrichting: 17.07.2018 07:00:00 - 23.07.2018 07:00:00 (CEST)Benavente, Spanje (8056): luchtdruk: 17.07.2018 07:00:00 - 23.07.2018 07:00:00 (CEST)Benavente, Spanje (8056): zicht: 17.07.2018 07:00:00 - 23.07.2018 07:00:00 (CEST)Benavente, Spanje (8056): Zonneschijnduur: 17.07.2018 07:00:00 - 23.07.2018 07:00:00 (CEST)Benavente, Spanje (8056): neerslag: 17.07.2018 07:00:00 - 23.07.2018 07:00:00 (CEST)
Datum & Tijd tt [°C] td [°C] ff [km/u] ff [kn] fx [km/u] fx [kn] dd ppp [hPa] vv [km] sd [min] rr [mm]
23.07.2018 07:00:00 - - - - - - - - - - -
23.07.2018 06:00:00 15,2 12,1 10 5 18 10 N 1017,0 20 0 0,0
23.07.2018 05:00:00 15,6 12,3 8 4 18 10 N 1017,1 20 0 0,0
23.07.2018 04:00:00 16,1 12,4 8 5 16 9 N 1017,1 20 0 0,0
23.07.2018 03:00:00 16,8 12,3 7 4 21 11 NO 1017,1 20 0 0,0
23.07.2018 02:00:00 17,7 12,5 9 5 18 10 ONO 1016,7 20 0 -
23.07.2018 01:00:00 18,8 12,5 9 5 24 13 NO 1016,2 16 0 0,0
23.07.2018 00:00:00 19,9 11,9 9 5 23 12 ONO 1015,6 20 0 0,0
22.07.2018 23:00:00 21,0 11,0 5 3 10 5 N 1015,1 20 0 0,0
22.07.2018 22:00:00 23,2 10,9 4 2 9 5 NNW 1013,6 20 9 0,0
22.07.2018 21:00:00 26,4 8,4 6 3 13 7 N 1012,1 20 26 0,0
22.07.2018 20:00:00 27,6 8,0 6 4 16 9 NNO 1011,5 20 39 -
22.07.2018 19:00:00 28,1 7,3 8 4 19 10 N 1011,3 20 54 0,0
22.07.2018 18:00:00 28,2 8,0 6 3 20 11 N 1011,5 20 60 0,0
22.07.2018 17:00:00 26,9 7,8 8 5 21 12 NO 1012,1 20 60 0,0
22.07.2018 16:00:00 26,9 7,8 10 6 23 12 N 1012,6 20 60 0,0
22.07.2018 15:00:00 25,5 8,0 5 3 24 13 NW 1013,2 20 57 0,0
22.07.2018 14:00:00 24,6 9,3 7 4 23 13 NNO 1013,7 20 59 -
22.07.2018 13:00:00 23,3 10,0 9 5 24 13 NO 1014,5 20 60 0,0
22.07.2018 12:00:00 21,7 10,2 13 7 26 14 NO 1015,0 20 58 0,0
22.07.2018 11:00:00 20,4 10,8 9 5 22 12 NO 1015,4 20 60 0,0
22.07.2018 10:00:00 18,0 11,6 8 4 17 9 ONO 1016,1 20 60 0,0
22.07.2018 09:00:00 15,6 11,3 8 4 16 8 NNO 1016,9 20 60 0,0
22.07.2018 08:00:00 14,0 11,0 5 3 12 7 N 1017,1 20 35 -
22.07.2018 07:00:00 12,6 10,6 6 4 11 6 N 1017,3 17 0 0,0
22.07.2018 06:00:00 12,8 10,9 5 3 11 6 N 1017,0 14 0 0,0
22.07.2018 05:00:00 13,2 10,9 5 3 14 8 N 1017,0 12 0 0,0
22.07.2018 04:00:00 14,4 11,6 4 2 9 5 N 1016,5 17 0 0,0
22.07.2018 03:00:00 15,5 11,9 4 2 8 4 N 1016,2 20 0 0,0
22.07.2018 02:00:00 16,1 11,7 4 2 9 5 N 1016,1 20 0 -
22.07.2018 01:00:00 16,4 11,8 5 3 9 5 N 1015,9 20 0 0,0
22.07.2018 00:00:00 16,8 11,9 4 2 8 4 N 1015,9 20 0 0,0
21.07.2018 23:00:00 18,0 12,4 2 1 10 5 NNO 1015,6 20 0 0,0
21.07.2018 22:00:00 19,0 11,3 5 3 13 7 NNO 1014,9 20 0 0,0
21.07.2018 21:00:00 19,7 10,4 7 4 18 10 N 1014,5 20 0 0,0
21.07.2018 20:00:00 20,1 9,9 8 4 18 10 NNO 1014,0 20 0 -
21.07.2018 19:00:00 20,3 8,9 11 6 26 14 NO 1014,6 20 0 0,0
21.07.2018 18:00:00 21,5 9,7 6 4 15 8 O 1013,9 20 0 0,0
21.07.2018 17:00:00 22,2 8,0 7 4 14 8 NO 1014,1 20 2 0,0
21.07.2018 16:00:00 22,9 8,5 5 3 12 6 N 1014,5 20 15 0,0
21.07.2018 15:00:00 21,3 9,2 4 2 12 6 W 1015,3 20 0 0,0
21.07.2018 14:00:00 21,1 10,3 4 2 16 9 Z 1015,6 20 0 -
21.07.2018 13:00:00 20,3 10,6 5 3 12 6 WNW 1016,3 20 21 0,0
21.07.2018 12:00:00 18,6 10,6 4 2 12 7 ONO 1017,0 20 45 0,0
21.07.2018 11:00:00 17,4 10,5 4 2 12 7 ONO 1017,5 20 39 0,0
21.07.2018 10:00:00 16,3 11,0 4 2 14 8 ZZO 1017,9 20 60 0,0
21.07.2018 09:00:00 15,0 10,2 5 3 12 7 O 1018,5 20 60 0,0
21.07.2018 08:00:00 14,0 10,2 4 2 8 5 NNO 1018,4 20 36 -
21.07.2018 07:00:00 12,8 10,6 0 0 3 2 N 1018,4 20 0 0,0
21.07.2018 06:00:00 13,1 10,4 1 1 19 10 Z 1018,1 20 0 0,0
21.07.2018 05:00:00 13,3 10,6 4 2 12 6 NO 1018,2 20 0 0,0
21.07.2018 04:00:00 14,0 11,3 4 2 13 7 N 1018,3 20 0 0,0
21.07.2018 03:00:00 14,7 10,9 7 4 12 7 ONO 1018,2 20 0 0,0
21.07.2018 02:00:00 16,1 12,4 3 1 13 7 N 1018,3 20 0 -
21.07.2018 01:00:00 16,1 12,4 4 2 19 11 ONO 1018,1 20 0 0,0
21.07.2018 00:00:00 17,0 13,2 6 3 15 8 NO 1017,7 20 0 0,0
20.07.2018 23:00:00 17,8 14,1 6 3 13 7 N 1017,2 20 0 0,0
20.07.2018 22:00:00 19,1 15,2 4 2 9 5 NO 1016,1 20 0 0,0
20.07.2018 21:00:00 19,3 15,2 3 2 11 6 NNO 1015,6 20 10 0,0
20.07.2018 20:00:00 18,2 15,3 5 3 19 10 ONO 1015,7 20 0 -
20.07.2018 19:00:00 17,0 15,2 8 5 49 27 N 1016,3 1,2 0 0,0
20.07.2018 18:00:00 22,4 13,2 9 5 29 16 ZO 1013,9 20 18 0,0
20.07.2018 17:00:00 23,2 10,9 13 7 29 16 NO 1013,7 20 28 0,0
20.07.2018 16:00:00 25,5 10,2 9 5 28 15 NNW 1012,7 20 32 0,0
20.07.2018 15:00:00 25,7 11,4 10 5 29 15 NW 1012,9 20 46 0,0
20.07.2018 14:00:00 24,2 10,9 6 3 23 12 N 1014,0 20 25 -
20.07.2018 13:00:00 23,2 11,2 11 6 24 13 NO 1014,6 20 22 0,0
20.07.2018 12:00:00 21,5 11,8 8 4 23 12 ONO 1015,3 20 7 0,0
20.07.2018 11:00:00 20,7 11,6 11 6 24 13 NO 1015,7 20 36 0,0
20.07.2018 10:00:00 20,0 12,2 7 4 14 7 N 1015,8 20 60 0,0
20.07.2018 09:00:00 17,8 12,4 4 2 9 5 NNO 1016,4 20 27 0,0
20.07.2018 08:00:00 16,4 12,7 6 3 11 6 ONO 1016,4 20 0 -
20.07.2018 07:00:00 16,0 12,3 5 3 11 6 N 1016,4 20 0 0,0
20.07.2018 06:00:00 15,5 12,4 4 2 9 5 N 1016,3 20 0 0,0
20.07.2018 05:00:00 15,7 12,6 4 2 8 4 NNO 1016,4 20 0 0,0
20.07.2018 04:00:00 15,7 12,6 1 1 9 5 NNW 1016,4 20 0 0,0
20.07.2018 03:00:00 16,4 13,0 4 2 6 4 N 1016,4 20 0 0,0
20.07.2018 02:00:00 17,1 13,3 3 2 14 7 N 1016,6 20 0 -
20.07.2018 01:00:00 17,8 13,1 6 4 16 9 NO 1016,6 20 0 0,0
20.07.2018 00:00:00 19,2 11,8 6 4 26 14 NNO 1015,9 20 0 0,0
19.07.2018 23:00:00 20,8 10,9 13 7 27 15 N 1015,0 20 0 0,0
19.07.2018 22:00:00 21,3 10,8 11 6 36 20 N 1014,1 20 1 0,0
19.07.2018 21:00:00 23,2 12,5 19 10 41 22 N 1012,9 20 19 0,0
19.07.2018 20:00:00 28,5 11,1 12 6 36 20 W 1010,6 20 33 -
19.07.2018 19:00:00 29,0 3,8 12 6 27 15 ZZW 1010,0 20 47 0,0
19.07.2018 18:00:00 29,3 6,7 10 5 29 16 Z 1010,0 20 49 0,0
19.07.2018 17:00:00 28,5 6,5 6 3 27 14 ZO 1010,5 19 45 0,0
19.07.2018 16:00:00 28,5 7,7 5 3 18 10 ONO 1010,8 20 59 0,0
19.07.2018 15:00:00 27,7 5,9 6 3 21 11 W 1011,5 17 60 0,0
19.07.2018 14:00:00 26,5 10,6 3 2 20 11 O 1012,2 20 50 -
19.07.2018 13:00:00 25,2 13,1 6 3 17 9 W 1012,7 19 60 0,0
19.07.2018 12:00:00 23,4 14,9 5 3 - - W 1013,4 16 - -
19.07.2018 11:00:00 21,2 14,8 3 2 13 7 ZZW 1014,2 18 19 0,0
19.07.2018 10:00:00 19,7 14,7 4 2 14 7 NNO 1014,5 12 30 0,0
19.07.2018 09:00:00 18,9 14,8 6 3 13 7 NNO 1014,6 12 48 0,0
19.07.2018 08:00:00 17,0 14,2 5 3 13 7 NO 1014,8 10 22 -
19.07.2018 07:00:00 16,5 14,3 7 4 13 7 N 1015,1 11 0 0,0
19.07.2018 06:00:00 16,6 14,2 5 3 9 5 N 1014,9 12 0 0,0
19.07.2018 05:00:00 17,2 14,4 4 2 10 5 NNO 1014,6 12 0 0,0
19.07.2018 04:00:00 17,6 14,7 5 3 10 5 NNO 1014,4 17 0 0,0
19.07.2018 03:00:00 18,4 14,3 3 2 16 9 N 1014,2 14 0 0,0
19.07.2018 02:00:00 19,4 14,4 6 3 21 12 NNO 1014,1 16 0 -
19.07.2018 01:00:00 21,2 13,9 11 6 21 11 NW 1013,5 20 0 0,0
19.07.2018 00:00:00 22,3 12,8 12 6 21 11 NW 1012,9 20 0 0,0
18.07.2018 23:00:00 24,8 8,7 6 3 14 8 W 1012,0 20 0 0,0
18.07.2018 22:00:00 26,2 6,7 7 4 19 10 ZW 1011,2 20 8 0,0
18.07.2018 21:00:00 27,9 5,5 9 5 23 13 ZW 1010,4 20 34 0,0
18.07.2018 20:00:00 29,5 5,6 10 6 23 12 ZW 1009,7 20 29 -
18.07.2018 19:00:00 30,1 5,3 10 5 25 14 ZW 1009,3 20 57 0,0
18.07.2018 18:00:00 30,6 4,3 9 5 29 16 ZW 1009,2 20 60 0,0
18.07.2018 17:00:00 30,6 5,8 12 7 29 16 ZZW 1009,2 20 56 0,0
18.07.2018 16:00:00 29,3 6,7 13 7 33 18 ZW 1009,8 20 59 0,0
18.07.2018 15:00:00 29,2 7,1 13 7 30 16 WZW 1009,8 20 54 0,0
18.07.2018 14:00:00 27,6 12,4 8 4 29 16 W 1010,4 20 60 -
18.07.2018 13:00:00 25,7 14,1 5 3 19 10 ZZW 1011,4 20 60 0,0
18.07.2018 12:00:00 23,4 14,1 3 2 14 7 ZZW 1011,9 19 60 0,0
18.07.2018 11:00:00 21,8 14,2 5 3 20 11 O 1012,3 20 57 0,0
18.07.2018 10:00:00 20,2 13,5 4 2 17 9 ONO 1012,9 20 44 0,0
18.07.2018 09:00:00 18,5 13,9 9 5 21 11 NNO 1012,4 20 16 0,0
18.07.2018 08:00:00 16,6 13,9 13 7 27 15 NNO 1012,2 17 0 -
18.07.2018 07:00:00 17,2 13,2 3 2 16 9 N 1012,6 17 0 0,0
18.07.2018 06:00:00 16,8 13,2 8 4 14 8 N 1012,5 19 0 0,0
18.07.2018 05:00:00 17,5 13,7 7 4 16 8 N 1012,5 20 0 0,0
18.07.2018 04:00:00 18,2 13,9 6 4 21 11 N 1012,7 20 0 0,0
18.07.2018 03:00:00 18,9 14,1 8 4 22 12 N 1012,9 19 0 0,0
18.07.2018 02:00:00 19,6 14,4 11 6 26 14 ONO 1012,6 20 0 -
18.07.2018 01:00:00 20,5 14,8 8 5 21 11 NNO 1012,7 20 0 0,0
18.07.2018 00:00:00 21,3 12,7 6 3 20 11 NNO 1012,8 20 0 0,0
17.07.2018 23:00:00 22,7 9,8 6 3 16 8 N 1012,1 20 0 0,0
17.07.2018 22:00:00 24,8 10,3 6 4 10 5 N 1011,2 20 3 0,0
17.07.2018 21:00:00 28,4 7,0 4 2 13 7 WNW 1010,2 20 27 0,0
17.07.2018 20:00:00 29,7 7,0 7 4 16 9 NW 1010,1 20 23 -
17.07.2018 19:00:00 29,7 6,4 5 3 19 10 Z 1010,2 20 53 0,0
17.07.2018 18:00:00 29,8 6,4 4 2 18 10 ZZW 1010,8 20 55 0,0
17.07.2018 17:00:00 28,4 7,6 5 3 18 10 NW 1012,2 20 40 0,0
17.07.2018 16:00:00 28,4 8,1 7 4 27 14 Z 1012,8 20 52 0,0
17.07.2018 15:00:00 28,1 7,8 6 3 20 11 Z 1013,3 20 60 0,0
17.07.2018 14:00:00 26,8 9,2 2 1 14 8 OZO 1014,4 20 60 -
17.07.2018 13:00:00 24,9 10,8 6 3 19 10 N 1015,3 20 60 0,0
17.07.2018 12:00:00 23,2 11,2 5 3 14 8 N 1016,4 20 60 0,0
17.07.2018 11:00:00 21,2 11,0 4 2 18 10 N 1017,4 20 60 0,0
17.07.2018 10:00:00 19,5 10,8 8 4 20 11 NO 1018,2 18 60 0,0
17.07.2018 09:00:00 17,0 10,9 10 5 18 10 ONO 1018,9 20 60 0,0
17.07.2018 08:00:00 15,3 10,9 8 4 16 8 NNO 1019,5 20 32 -
17.07.2018 07:00:00 14,1 10,5 5 3 11 6 N 1020,0 20 0 0,0

tt = temperatuur
td = dauwpunt
ff = windsnelheid
fx = windstoten
dd = windrichting
ppp = luchtdruk
vv = zicht
sd = Zonneschijnduur
rr = neerslag

Weerstations in de omgeving